Abilene, TX

5:23 AM CDT on September 26, 2017 (GMT -0500)
Abilene Regional

Weather History for KABI - March, 2014

Change the Weather History Date:

Friday, March 21, 2014

  Actual Average Record
Temperature  
Mean Temperature 71 °F 58 °F  
Max Temperature 81 °F 70 °F 98 °F (1916)
Min Temperature 60 °F 45 °F 25 °F (1913)
Degree Days  
Heating Degree Days 0 8  
Month to date heating degree days 273 225  
Since 1 July heating degree days 2635 2358  
Cooling Degree Days 6 1  
Month to date cooling degree days 17 16  
Year to date cooling degree days 22 21  
Growing Degree Days 20 (Base 50)    
Moisture  
Dew Point 48 °F    
Average Humidity 52    
Maximum Humidity 72    
Minimum Humidity 32    
Precipitation  
Precipitation 0.00 in 0.05 in 0.77 in (1948)
Month to date precipitation 0.64 1.18  
Year to date precipitation 1.13 3.56  
Sea Level Pressure  
Sea Level Pressure 29.81 in    
Wind  
Wind Speed 15 mph (South)    
Max Wind Speed 26 mph    
Max Gust Speed 33 mph    
Visibility 10 miles    
Events      
T = Trace of Precipitation, MM = Missing Value Source: NWS Daily Summary

Daily Weather History Graph

Daily Weather History Graph

Search for Another Location

Airport or City:

Trip Planner

Search our weather history database for the weather conditions in past years. The results will help you decide how hot, cold, wet, or windy it might be!

Date:

Astronomy

Mar. 21, 2014 Rise Set
Actual Time 7:41 AM CDT 7:51 PM CDT
Civil Twilight 7:16 AM CDT 8:15 PM CDT
Nautical Twilight 6:48 AM CDT 8:44 PM CDT
Astronomical Twilight 6:19 AM CDT 9:13 PM CDT
Moon No Moon Rise 10:49 AM CDT (3/21)
Length of Visible Light 12h 58m
Length of Day
12h 09m
Waning Gibbous, 75% of the Moon is Illuminated
Mar 21
Waning Gibbous
Mar 23
Last Quarter
Mar 30
New
Apr 7
First Quarter
Apr 15
Full

Hourly Weather History & Observations

Time (CDT) Temp. Dew Point Humidity Pressure Visibility Wind Dir Wind Speed Gust Speed Precip Events Conditions
12:52 AM 63.0 °F 32.0 °F 31% 29.89 in 10.0 mi South 13.8 mph - N/A   Clear
1:52 AM 62.1 °F 36.0 °F 38% 29.88 in 10.0 mi SSW 16.1 mph - N/A   Clear
2:52 AM 61.0 °F 39.9 °F 46% 29.86 in 10.0 mi South 13.8 mph - N/A   Clear
3:52 AM 62.1 °F 43.0 °F 50% 29.83 in 10.0 mi South 11.5 mph - N/A   Clear
4:52 AM 62.1 °F 45.0 °F 53% 29.81 in 10.0 mi South 15.0 mph - N/A   Clear
5:52 AM 61.0 °F 46.9 °F 60% 29.80 in 10.0 mi South 16.1 mph 23.0 mph N/A   Clear
6:52 AM 61.0 °F 48.0 °F 62% 29.79 in 10.0 mi South 15.0 mph - N/A   Clear
7:52 AM 61.0 °F 48.9 °F 64% 29.80 in 10.0 mi South 15.0 mph 20.7 mph N/A   Clear
8:52 AM 61.0 °F 51.1 °F 70% 29.81 in 10.0 mi South 12.7 mph 19.6 mph N/A   Clear
9:49 AM 62.6 °F 53.6 °F 72% 29.87 in 10.0 mi SSW 8.1 mph - N/A   Mostly Cloudy
9:52 AM 63.0 °F 54.0 °F 72% 29.83 in 10.0 mi South 10.4 mph - N/A   Mostly Cloudy
10:16 AM 64.9 °F 55.0 °F 70% 29.87 in 10.0 mi South 13.8 mph - N/A   Scattered Clouds
10:52 AM 66.0 °F 55.9 °F 70% 29.82 in 10.0 mi SSW 17.3 mph 28.8 mph N/A   Clear
11:52 AM 69.1 °F 55.9 °F 63% 29.80 in 10.0 mi SSW 18.4 mph 32.2 mph N/A   Clear
12:52 PM 71.1 °F 55.0 °F 57% 29.81 in 10.0 mi SSW 23.0 mph 29.9 mph N/A   Clear
1:52 PM 75.9 °F 55.0 °F 48% 29.78 in 10.0 mi SSW 21.9 mph 28.8 mph N/A   Clear
2:52 PM 79.0 °F 53.1 °F 40% 29.75 in 10.0 mi SSW 15.0 mph 27.6 mph N/A   Clear
3:52 PM 77.0 °F 55.0 °F 47% 29.75 in 10.0 mi South 15.0 mph - N/A   Clear
4:52 PM 79.0 °F 54.0 °F 42% 29.73 in 10.0 mi South 17.3 mph - N/A   Clear
5:52 PM 81.0 °F 51.1 °F 35% 29.72 in 10.0 mi South 11.5 mph - N/A   Clear
6:52 PM 80.1 °F 52.0 °F 38% 29.71 in 10.0 mi SSE 13.8 mph - N/A   Clear
7:52 PM 73.9 °F 52.0 °F 46% 29.73 in 10.0 mi SE 11.5 mph - N/A   Clear
8:52 PM 70.0 °F 51.1 °F 51% 29.77 in 10.0 mi North - - N/A   Clear
9:52 PM 69.1 °F 43.0 °F 39% 29.83 in 10.0 mi North 15.0 mph - N/A   Clear
10:52 PM 66.0 °F 42.1 °F 42% 29.85 in 10.0 mi NNE 12.7 mph - N/A   Clear
11:52 PM 63.0 °F 37.0 °F 38% 29.88 in 10.0 mi North 10.4 mph - N/A   Clear